Regional Weather Roundup
Issued by NWS Sioux Falls, SD

Home | Current Version | Previous Version | Text Only | Print | Product List | Glossary Off
Versions: 1 2 3 4 5 6 7 8 9 10 11 12 13 14 15 16 17 18 19 20 21 22 23 24 25 26 27 28 29 30 31 32 33 34 35 36 37 38 39 40 41 42 43 44 45 46 47 48 49 50

787
ASUS43 KFSD 150002
RWRFSD

WEATHER ROUNDUP FOR SE SOUTH DAKOTA/SW MINNESOTA/NW IOWA
NATIONAL WEATHER SERVICE SIOUX FALLS SD
600 PM CST SUN FEB 14 2016

NOTE: "FAIR" INDICATES FEW OR NO CLOUDS BELOW 12,000 FEET WITH NO
SIGNIFICANT WEATHER AND OR OBSTRUCTIONS TO VISIBILITY.


SDZ038>040-050-052>070-150100-
SOUTHEAST SOUTH DAKOTA

CITY           SKY/WX    TMP DP  RH WIND       PRES   REMARKS
BROOKINGS      FLURRIES  22  18  85 S6        29.79S WCI  14
CHAMBERLAIN    NOT AVBL
HURON          CLOUDY    28  23  81 S6        29.79R WCI  22
6HR MIN TEMP:  22; 6HR MAX TEMP:  29;

MADISON        CLOUDY    23  23 100 SW9       29.79S WCI  13
MITCHELL       CLOUDY    29  25  85 SE7       29.81S WCI  22
6HR MIN TEMP:  21; 6HR MAX TEMP:  31;

SIOUX FALLS    CLOUDY    22  17  81 S7        29.83R WCI  13
6HR MIN TEMP:  18; 6HR MAX TEMP:  22; 6HR PCP: TRACE;

WINNER         LGT RAIN  39  33  79 NW12G23   29.80R
YANKTON        CLOUDY    28  23  80 SE5       29.84S WCI  23
$$

MNZ071-072-080-081-089-090-097-098-150100-
SOUTHWEST MINNESOTA

CITY           SKY/WX    TMP DP  RH WIND       PRES   REMARKS
FAIRMONT       CLOUDY    19  14  79 SE12      29.86S WCI   7
JACKSON        CLOUDY    21  16  79 S8        29.85S WCI  12
LUVERNE        LGT SNOW  23  19  86 S8        29.84R WCI  14
MARSHALL       FLURRIES  21  16  81 S10       29.84S WCI  10
6HR MIN TEMP:  20; 6HR MAX TEMP:  21; 6HR PCP: TRACE;

MONTEVIDEO     CLOUDY    19  16  86 SW6       29.86S WCI  11
PIPESTONE      CLOUDY    21  14  73 SW7       29.81R WCI  13
REDWOOD FALLS  CLOUDY    20  15  81 S12       29.87S WCI   8
TRACY          CLOUDY    21  17  86 S5        29.84S WCI  15
WINDOM         CLOUDY    19  16  86 S6        29.85R WCI  11
WORTHINGTON    CLOUDY    18  12  79 S7        29.84R WCI   8
$$

IAZ001>003-012>014-020>022-031-032-NEZ013-014-SDZ071-150100-
NORTHWEST IOWA

CITY           SKY/WX    TMP DP  RH WIND       PRES   REMARKS
ESTHERVILLE    CLOUDY    19  16  88 S9        29.86R WCI   8
SIOUX CITY     CLOUDY    30  21  69 CALM      29.86S
6HR MIN TEMP:  24; 6HR MAX TEMP:  30;

SPENCER        CLOUDY    20  15  81 S7        29.86R WCI  11
6HR MIN TEMP:  18; 6HR MAX TEMP:  20;

STORM LAKE     CLOUDY    21  21 100 S7        29.85S WCI  13
$$

ABBREVIATIONS USED IN REMARKS
   TC - TEMPERATURE IN CELSIUS
  WCI - WIND CHILL INDEX
   HX - HEAT INDEX
  VSB - VISIBILITY





USA.gov is the U.S. government's official web portal to all federal, state and local government web resources and services.